Weather in Khoroshiv

Ukraine / Zhytomyr Region     50°35′45″N   28°26′43″E
temp.,
°C
wind,
m/s
gust,
m/s
humid.,
%
clouds,
%
prec.,
mm/h
press.,
hPa
HPBL,
m
23 september, thu
thu2300:00+5nw4693100 0.1 1016812
03:00+5nw4796100 0.2 1016830
06:00+5wnw4897100 0.3 1016745
09:00+6wnw4796100 0.6 1016917
12:00+7wnw5891100 0.3 1016652
15:00+9wnw5878100 0.4 10151100
18:00+9w237932 0.1 1013176
21:00+6sw4691100 0.1 101395
24 september, fri
fri2400:00+8ssw51091100 0.2 1010322
03:00+9sw71590100 1.0 1006603
06:00+8sw101993100 4.9 1002804
09:00+10wsw9169287 9.2 10011035
12:00+12wnw10147170 0.6 10021391
15:00+13wnw10146994 1.1 10021430
18:00+12w9167175 0.3 10031260
21:00+9wnw71394100 3.0 1005904
25 september, sat
sat2500:00+9wnw81488100 1.6 1007858
03:00+9wnw7149087 1.8 1008730
06:00+8wnw71391100 0.0 1010604
09:00+9wnw6128998 0.0 1012544
12:00+9w51085100 0.0 1014456
15:00+13w6117748 0.1 1014701
18:00+14w61379100 0.0 1014814
21:00+12w5139396 0.1 1015397
26 september, sun
sun2600:00+14wnw6148798 0.1 1015725
03:00+14wnw61290100 0.3 1016690
06:00+13nw5118674 0.1 1017621
09:00+12nw510823 0.2 1019622
12:00+15nnw67604 0.0 10201066
15:00+17nnw57525 0.0 10201253
18:00+15nnw476178 0.0 1021251
21:00+10nne48805 0.0 1022158
27 september, mon
mon2700:00+7nne338829 0.0 102354
03:00+6ne349314 0.0 102468
06:00+5ne33915 0.0 102540
09:00+8ne34745 0.0 1025218
12:00+13ene34570 0.0 1025952
15:00+15ne34508 0.0 10241407
18:00+13ene35615 0.0 1024128
21:00+9ene377233 0.0 102599